Other Surface Observations
Issued by NWS Charleston, SC

Home | Current Version | Previous Version | Text Only | Print | Product List | Glossary On
Versions: 1 2 3 4 5 6 7 8 9 10 11 12 13 14 15 16 17 18 19 20 21 22 23 24 25 26 27 28 29 30 31 32 33 34 35 36 37 38 39 40 41 42 43 44 45 46 47 48 49 50
315
SXUS52 KCHS 041027
OSOCHS

MARINE OBSERVATIONS
NATIONAL WEATHER SERVICE CHARLESTON SC
500 AM EST SUN DEC 04 2016

...DOWNTOWN CHARLESTON AND HARBOR...

CITY           SKY/WX    TMP DP  RH WIND       PRES   REMARKS
WATERFRONT PRK   N/A     52  44  74 N7        30.21S

...LAKE MOULTRIE...

CITY           SKY/WX    TMP DP  RH WIND       PRES   REMARKS
PINOPOLIS        N/A     52  37  58 NE8       30.15F

...LAKE AND SUPPLEMENTAL COASTAL OBSERVATIONS...

STATION/POSITION TIME  TEMP    WIND        PRES    WAVE   SWELL
                       AIR SEA DIR/SP/G            HT/PER HT/PER/DIR
                 (UTC) (F)     (DEG/KT/KT) (MB)    (FT/S) (FT/S/D)
FORT PULASKI     1000   59 62   70/ 14/ 17 1021.7
SAPELO ISLAND    1000   61      70/  6     1020.0
WINYAH BAY       0945   48     330/  6     1023.0S
LAKE MURRAY      1020   47      40/  4/  6 1023.0
ACE BASIN NERRS  0930   50      20/  2     1022.0F


...C-MAN AND BUOY OBSERVATIONS...

STATION/POSITION TIME  TEMP    WIND        PRES    WAVE   SWELL
                       AIR SEA DIR/SP/G            HT/PER HT/PER/DIR
                 (UTC) (F)     (DEG/KT/KT) (MB)    (FT/S) (FT/S/D)
BUOY 41004       0950   62 74   40/  6/ 10 1022.2R   3/ 6   2/ 70/ 6
BUOY 41008       0950   65 64   90/ 16/ 17 1020.2F   4/ 5   2/ 90/ 7
FOLLY BEACH CMAN 1000   53      20/ 10/ 12 1023.3F
CAPERS NS BUOY   1008   53 62   30/ 12/ 16 1022.9F
FRIPP NS BUOY    1008   57 61   50/ 14/ 17 1022.2F
5E ST. MARYS GA  1000      65                N/A     4/ 6


STATION/POSITION TIME  TEMP    WIND        PRES    WAVE   SWELL
                       AIR SEA DIR/SP/G            HT/PER HT/PER/DIR
                 (UTC) (F)     (DEG/KT/KT) (MB)    (FT/S) (FT/S/D)
FRYING PAN BUOY  1010   60 73   30/ 10/ 14 1022.6
BUOY 41025       0950   54 75   10/ 14/ 19 1023.2R   5/ 9   5/ 50/ 9
CAPE LOOKOUT NC  1000   49      10/ 10/ 12 1023.4F
BUOY 41002       0950   64 73   50/ 12/ 16 1020.6F   5/ 8   5/ 30/ 8
BUOY 41010       NOT AVBL
ST AUGUSTINE FL  1000   68 66  110/  7/  8 1020.3F

$$




USA.gov is the U.S. government's official web portal to all federal, state and local government web resources and services.